Temp
-9 -9 -8 -8 -8 -8 -8 -8 -8 -8 -7 -7 -7 -8 -8 -7 -7 -8 -9 -9 -9 -9 -9 -9 -9 -9 -9 -9 -9 -9 -9 -9 -9 -9 -9 -9 -9 -9 -9 -9 -9 -9 -9 -9 -8 -8 -8 -8 -8
-9 -9 -9 -8 -8 -8 -8 -8 -8 -8 -8 -8 -8 -8 -7 -7 -7 -8 -8 -9 -8 -9 -9 -9 -9 -9 -9 -9 -9 -8 -8 -9 -9 -9 -9 -9 -8 -9 -9 -9 -9 -9 -9 -9 -8 -8 -8 -8 -8
-9 -9 -9 -9 -8 -9 -9 -8 -8 -8 -8 -8 -8 -8 -7 -7 -7 -7 -8 -9 -8 -8 -8 -8 -9 -9 -9 -9 -9 -8 -8 -9 -9 -9 -9 -9 -9 -9 -9 -9 -9 -9 -9 -8 -8 -8 -8 -8 -8
-9 -9 -9 -8 -8 -9 -9 -9 -9 -8 -8 -8 -8 -8 -7 -7 -7 -7 -8 -8 -8 -8 -8 -8 -9 -9 -9 -9 -9 -8 -9 -9 -8 -9 -9 -9 -9 -9 -9 -9 -9 -9 -9 -9 -9 -8 -8 -8 -8
-10 -9 -9 -9 -9 -9 -9 -9 -9 -9 -8 -8 -8 -7 -7 -7 -7 -7 -7 -8 -8 -8 -8 -8 -8 -9 -9 -9 -8 -8 -8 -8 -8 -8 -9 -8 -8 -9 -8 -9 -9 -9 -8 -8 -8 -8 -8 -8 -8
-10 -10 -10 -10 -10 -10 -10 -9 -9 -9 -8 -8 -8 -8 -7 -7 -7 -7 -7 -7 -8 -8 -8 -8 -8 -9 -9 -9 -9 -9 -8 -8 -8 -8 -9 -8 -8 -8 -8 -9 -9 -9 -9 -8 -8 -8 -8 -8 -8
-11 -11 -10 -10 -10 -9 -10 -9 -9 -9 -9 -9 -8 -8 -8 -7 -7 -7 -7 -7 -7 -8 -8 -8 -8 -8 -9 -9 -9 -9 -9 -8 -8 -9 -8 -8 -8 -8 -8 -9 -8 -8 -8 -8 -8 -8 -8 -9 -9
-11 -11 -10 -10 -10 -9 -9 -9 -9 -9 -9 -9 -8 -8 -8 -8 -7 -7 -7 -7 -7 -7 -8 -8 -8 -8 -8 -9 -9 -9 -8 -9 -9 -9 -8 -8 -8 -8 -8 -8 -8 -8 -8 -8 -8 -9 -9 -9 -9
-11 -11 -11 -11 -11 -10 -10 -9 -9 -9 -9 -9 -9 -9 -8 -8 -7 -7 -7 -7 -7 -7 -7 -8 -8 -8 -8 -8 -8 -8 -8 -8 -8 -8 -8 -8 -8 -8 -8 -8 -8 -8 -9 -9 -9 -9 -9 -9 -9
-11 -11 -11 -11 -11 -11 -10 -10 -10 -10 -10 -9 -9 -9 -8 -8 -8 -7 -7 -7 -7 -7 -7 -7 -7 -8 -8 -8 -8 -8 -8 -8 -7 -8 -8 -8 -8 -8 -8 -8 -8 -8 -9 -9 -9 -9 -9 -9 -9
-10 -11 -12 -12 -11 -11 -10 -10 -10 -10 -10 -9 -9 -9 -9 -8 -8 -7 -7 -7 -7 -7 -7 -7 -7 -7 -8 -8 -8 -8 -8 -8 -8 -8 -8 -9 -9 -8 -8 -8 -8 -8 -8 -9 -9 -9 -9 -9 -9
-11 -11 -11 -12 -12 -11 -10 -10 -10 -9 -10 -10 -9 -9 -9 -8 -8 -8 -7 -7 -7 -7 -7 -7 -7 -7 -8 -8 -8 -8 -8 -8 -8 -8 -8 -8 -8 -8 -8 -8 -8 -8 -8 -9 -9 -9 -9 -9 -10
-11 -11 -11 -11 -12 -11 -11 -10 -9 -9 -10 -10 -9 -9 -9 -8 -8 -8 -7 -7 -7 -7 -7 -7 -8 -8 -8 -8 -8 -8 -8 -8 -8 -8 -8 -8 -8 -8 -8 -8 -9 -9 -9 -9 -9 -10 -10 -10 -10
-12 -11 -11 -11 -11 -11 -12 -11 -9 -9 -10 -10 -9 -9 -9 -9 -8 -8 -8 -8 -7 -7 -7 -7 -7 -8 -8 -8 -8 -8 -8 -8 -8 -8 -8 -8 -8 -8 -8 -9 -9 -9 -10 -10 -10 -10 -10 -10 -10
-14 -12 -12 -11 -11 -11 -11 -10 -9 -11 -10 -10 -10 -9 -9 -9 -8 -8 -8 -8 -8 -7 -7 -8 -7 -8 -8 -8 -8 -8 -8 -8 -8 -8 -8 -9 -8 -8 -8 -9 -9 -10 -10 -10 -10 -10 -10 -10 -11
-14 -13 -12 -12 -11 -10 -11 -10 -11 -11 -10 -9 -10 -9 -10 -9 -9 -9 -8 -8 -8 -8 -8 -7 -7 -8 -8 -8 -8 -8 -8 -8 -9 -9 -9 -9 -9 -9 -9 -9 -9 -10 -10 -10 -10 -10 -10 -11 -11
-14 -13 -13 -12 -12 -11 -11 -10 -12 -11 -10 -10 -10 -10 -10 -9 -9 -9 -9 -8 -8 -8 -8 -8 -8 -8 -8 -8 -8 -8 -8 -8 -8 -9 -9 -9 -9 -9 -9 -9 -10 -10 -10 -10 -10 -10 -10 -10 -11
-14 -14 -14 -13 -13 -12 -11 -11 -11 -12 -11 -11 -10 -10 -9 -9 -9 -9 -9 -8 -8 -8 -8 -8 -8 -8 -8 -8 -9 -9 -9 -9 -9 -9 -9 -9 -9 -9 -10 -10 -10 -10 -10 -10 -11 -11 -10 -10 -11
-14 -14 -15 -15 -14 -14 -13 -12 -11 -12 -11 -10 -10 -10 -10 -10 -10 -9 -9 -8 -8 -8 -8 -8 -8 -8 -8 -9 -9 -10 -9 -9 -9 -9 -9 -9 -9 -9 -10 -10 -10 -10 -10 -10 -11 -10 -11 -10 -10
-15 -15 -15 -15 -15 -15 -14 -12 -12 -12 -11 -11 -10 -10 -10 -10 -10 -9 -9 -9 -9 -8 -8 -8 -9 -8 -8 -9 -9 -9 -9 -9 -9 -9 -9 -9 -10 -10 -10 -9 -10 -10 -10 -10 -10 -11 -11 -10 -11
-16 -16 -14 -15 -14 -14 -14 -12 -12 -11 -11 -11 -10 -10 -10 -10 -10 -10 -9 -9 -9 -9 -9 -9 -9 -9 -9 -9 -8 -8 -8 -9 -9 -9 -9 -9 -9 -9 -9 -10 -10 -10 -10 -10 -11 -10 -10 -11 -11
-15 -14 -15 -15 -15 -14 -14 -12 -12 -11 -11 -10 -10 -10 -10 -10 -10 -9 -9 -9 -9 -9 -10 -9 -9 -9 -9 -9 -9 -9 -9 -9 -9 -9 -9 -9 -9 -10 -10 -10 -10 -10 -10 -11 -10 -11 -11 -11 -11
-16 -16 -15 -15 -15 -15 -13 -13 -10 -11 -10 -10 -10 -10 -11 -10 -10 -10 -10 -10 -10 -10 -9 -10 -9 -9 -9 -9 -9 -9 -9 -9 -9 -9 -9 -9 -10 -10 -10 -10 -11 -11 -11 -11 -11 -11 -11 -11 -11
-16 -16 -15 -15 -16 -16 -13 -13 -10 -11 -10 -11 -11 -11 -11 -11 -10 -10 -10 -10 -9 -9 -9 -9 -9 -9 -9 -10 -10 -10 -10 -10 -10 -10 -10 -10 -10 -10 -11 -11 -11 -11 -11 -11 -11 -11 -11 -11 -11
-17 -16 -16 -16 -16 -14 -14 -14 -9 -10 -11 -11 -11 -11 -11 -10 -10 -10 -10 -9 -10 -9 -10 -10 -10 -10 -10 -10 -10 -10 -11 -11 -11 -11 -10 -10 -11 -11 -11 -11 -11 -11 -11 -11 -10 -11 -11 -11 -11
-15 -17 -17 -17 -16 -13 -14 -13 -11 -11 -11 -11 -11 -11 -10 -10 -10 -11 -10 -10 -10 -10 -10 -10 -10 -10 -10 -10 -10 -10 -11 -11 -11 -11 -11 -11 -11 -11 -11 -11 -11 -10 -10 -10 -10 -10 -11 -11 -11
-16 -17 -15 -17 -17 -15 -15 -13 -12 -12 -11 -11 -11 -11 -11 -11 -10 -10 -10 -10 -10 -10 -10 -10 -10 -10 -10 -10 -10 -10 -10 -10 -11 -11 -11 -11 -11 -11 -11 -10 -9 -10 -10 -10 -10 -11 -11 -11 -12
-17 -17 -18 -18 -18 -17 -15 -13 -12 -12 -11 -11 -11 -11 -12 -11 -11 -10 -10 -10 -10 -10 -10 -10 -10 -10 -10 -10 -10 -10 -10 -11 -11 -11 -11 -11 -11 -10 -10 -10 -10 -10 -10 -10 -11 -11 -11 -11 -12
-17 -17 -17 -17 -18 -17 -16 -14 -12 -12 -12 -11 -11 -11 -11 -12 -11 -10 -10 -10 -10 -10 -10 -10 -10 -10 -10 -10 -10 -10 -10 -11 -11 -11 -11 -11 -10 -11 -10 -10 -10 -11 -11 -11 -11 -11 -11 -12 -12
-19 -19 -18 -18 -17 -17 -16 -14 -13 -12 -12 -11 -11 -11 -11 -11 -11 -11 -10 -10 -10 -11 -10 -10 -10 -10 -11 -11 -10 -11 -11 -11 -11 -11 -11 -11 -11 -11 -10 -11 -11 -11 -11 -11 -11 -12 -12 -12 -12
Height
5883 5885 5888 5890 5896 5895 5895 5896 5896 5896 5895 5894 5892 5891 5889 5886 5883 5883 5878 5877 5876 5877 5878 5878 5877 5878 5880 5881 5883 5884 5885 5885 5885 5886 5886 5886 5886 5886 5887 5887 5887 5887 5888 5887 5887 5888 5888 5888 5887
5878 5881 5884 5887 5890 5892 5893 5894 5894 5895 5894 5893 5892 5891 5889 5887 5884 5882 5880 5878 5878 5878 5878 5878 5879 5880 5881 5883 5884 5885 5886 5886 5887 5887 5887 5887 5887 5887 5887 5887 5888 5888 5888 5889 5888 5888 5888 5888 5888
5875 5878 5881 5883 5886 5888 5890 5893 5893 5893 5893 5893 5892 5891 5889 5888 5885 5883 5881 5879 5879 5879 5879 5878 5880 5881 5882 5884 5884 5885 5886 5887 5888 5888 5888 5888 5888 5887 5887 5887 5888 5889 5889 5889 5888 5888 5889 5889 5888
5871 5874 5877 5880 5883 5885 5886 5889 5890 5891 5891 5891 5891 5890 5889 5888 5886 5883 5882 5880 5879 5880 5880 5880 5880 5881 5883 5884 5885 5886 5886 5887 5887 5888 5888 5888 5888 5888 5887 5887 5888 5889 5889 5889 5890 5890 5890 5889 5888
5867 5869 5870 5874 5878 5881 5883 5884 5887 5888 5889 5889 5889 5889 5888 5887 5886 5884 5882 5881 5879 5880 5881 5880 5881 5882 5883 5884 5885 5886 5886 5887 5887 5889 5889 5889 5888 5888 5888 5888 5889 5889 5890 5890 5889 5889 5889 5889 5888
5863 5865 5866 5869 5871 5875 5879 5880 5883 5885 5886 5887 5887 5887 5887 5885 5885 5884 5882 5881 5880 5879 5881 5881 5881 5883 5884 5885 5886 5886 5886 5888 5889 5889 5889 5888 5888 5888 5888 5888 5888 5889 5889 5889 5889 5889 5889 5889 5888
5858 5860 5861 5864 5867 5870 5874 5876 5878 5881 5883 5884 5884 5884 5884 5884 5883 5883 5881 5881 5880 5879 5880 5882 5882 5882 5884 5885 5886 5886 5886 5887 5889 5889 5889 5889 5888 5888 5888 5889 5889 5889 5889 5889 5888 5888 5888 5887 5887
5853 5854 5856 5860 5862 5865 5868 5870 5873 5877 5879 5881 5881 5881 5882 5882 5882 5881 5880 5880 5880 5880 5880 5882 5882 5882 5884 5884 5885 5887 5887 5886 5887 5887 5888 5888 5889 5889 5889 5889 5889 5889 5889 5888 5887 5886 5887 5887 5886
5847 5848 5854 5858 5858 5860 5863 5866 5869 5872 5875 5877 5877 5878 5878 5879 5879 5880 5879 5878 5879 5879 5879 5880 5881 5882 5883 5884 5884 5886 5887 5888 5888 5888 5887 5887 5888 5888 5888 5888 5888 5888 5887 5886 5886 5885 5885 5884 5884
5841 5843 5851 5849 5853 5854 5856 5861 5864 5868 5871 5872 5873 5874 5875 5876 5877 5877 5877 5877 5877 5878 5878 5879 5879 5881 5882 5882 5883 5884 5884 5885 5886 5886 5886 5885 5886 5886 5886 5886 5886 5886 5886 5885 5884 5884 5883 5882 5881
5835 5841 5843 5844 5847 5849 5851 5853 5856 5861 5866 5866 5867 5870 5871 5872 5873 5874 5874 5874 5875 5875 5877 5877 5878 5879 5880 5880 5882 5883 5884 5884 5884 5883 5883 5883 5884 5884 5884 5884 5884 5884 5884 5884 5883 5882 5882 5880 5879
5825 5832 5836 5839 5841 5844 5846 5848 5851 5855 5859 5860 5862 5865 5866 5867 5869 5870 5870 5871 5872 5872 5872 5875 5876 5876 5878 5878 5879 5880 5881 5882 5882 5882 5882 5882 5881 5881 5881 5882 5882 5882 5880 5879 5878 5878 5878 5878 5877
5816 5822 5826 5830 5834 5837 5841 5842 5844 5849 5851 5856 5857 5860 5862 5863 5865 5866 5867 5867 5869 5869 5869 5870 5873 5874 5874 5876 5876 5878 5879 5879 5879 5879 5880 5880 5880 5879 5879 5878 5878 5878 5878 5878 5877 5875 5875 5875 5874
5806 5811 5816 5821 5828 5831 5834 5835 5836 5842 5844 5850 5852 5854 5857 5858 5860 5861 5862 5863 5864 5865 5865 5866 5868 5870 5871 5872 5873 5874 5876 5876 5876 5876 5876 5877 5877 5876 5875 5876 5876 5875 5875 5874 5874 5874 5872 5871 5870
5795 5801 5805 5812 5818 5823 5826 5828 5834 5833 5836 5840 5844 5848 5852 5854 5855 5855 5857 5857 5859 5861 5862 5863 5864 5865 5866 5867 5869 5870 5871 5872 5872 5873 5873 5874 5874 5873 5873 5872 5871 5871 5871 5871 5871 5870 5869 5868 5867
5786 5789 5796 5804 5807 5814 5817 5825 5826 5823 5826 5832 5836 5840 5845 5848 5848 5850 5852 5852 5853 5856 5857 5858 5858 5860 5861 5862 5863 5866 5866 5867 5867 5868 5869 5869 5869 5869 5869 5869 5868 5868 5867 5867 5867 5866 5865 5864 5863
5776 5783 5787 5791 5797 5801 5807 5813 5819 5816 5819 5823 5828 5833 5836 5839 5840 5843 5846 5846 5848 5850 5852 5853 5854 5854 5855 5856 5858 5859 5861 5861 5862 5863 5863 5864 5864 5863 5864 5864 5864 5863 5863 5863 5861 5860 5860 5859 5858
5772 5774 5778 5784 5789 5790 5796 5802 5810 5811 5814 5818 5820 5823 5827 5831 5836 5837 5839 5841 5843 5844 5846 5848 5849 5849 5850 5851 5852 5854 5856 5856 5856 5856 5856 5858 5859 5858 5858 5859 5859 5858 5858 5858 5857 5855 5855 5855 5854
5762 5765 5769 5775 5779 5781 5786 5789 5801 5803 5806 5811 5816 5820 5824 5827 5831 5828 5832 5836 5838 5841 5842 5842 5843 5843 5844 5846 5847 5849 5850 5849 5851 5851 5851 5854 5854 5854 5853 5853 5854 5853 5852 5852 5852 5851 5850 5849 5848
5751 5754 5761 5767 5770 5772 5775 5778 5791 5795 5798 5805 5809 5813 5817 5820 5823 5823 5825 5829 5832 5834 5835 5837 5838 5838 5839 5840 5841 5842 5843 5845 5847 5848 5848 5849 5849 5847 5847 5848 5848 5848 5847 5846 5846 5845 5844 5842 5841
5742 5748 5754 5759 5760 5763 5765 5767 5782 5789 5789 5797 5804 5808 5810 5814 5817 5819 5819 5822 5824 5826 5829 5831 5831 5831 5833 5834 5836 5839 5838 5840 5842 5842 5841 5841 5842 5842 5843 5843 5843 5842 5841 5840 5840 5839 5837 5836 5835
5735 5742 5746 5747 5749 5754 5756 5755 5772 5781 5783 5789 5797 5800 5806 5807 5808 5810 5810 5813 5816 5820 5821 5821 5824 5827 5828 5829 5832 5833 5834 5834 5834 5834 5835 5836 5838 5837 5837 5837 5836 5836 5835 5834 5834 5832 5830 5829 5826
5728 5732 5735 5738 5736 5739 5745 5744 5765 5771 5778 5786 5792 5795 5798 5799 5798 5800 5803 5806 5808 5810 5812 5815 5815 5817 5820 5824 5825 5826 5827 5828 5827 5828 5829 5830 5830 5830 5830 5830 5829 5828 5828 5827 5827 5825 5823 5821 5818
5718 5723 5724 5721 5725 5722 5742 5739 5745 5767 5774 5779 5783 5787 5792 5792 5791 5793 5795 5798 5801 5804 5806 5807 5808 5811 5812 5815 5818 5820 5820 5821 5821 5822 5822 5822 5822 5823 5823 5822 5821 5821 5821 5819 5818 5817 5815 5813 5812
5701 5707 5713 5712 5712 5722 5728 5725 5738 5759 5764 5772 5776 5778 5784 5785 5786 5787 5788 5792 5794 5796 5798 5799 5800 5803 5804 5805 5808 5811 5812 5811 5813 5813 5814 5814 5814 5815 5815 5814 5813 5813 5813 5811 5810 5810 5808 5806 5803
5698 5702 5702 5704 5705 5723 5711 5721 5732 5747 5755 5762 5769 5770 5774 5778 5779 5780 5780 5782 5785 5787 5788 5790 5792 5793 5793 5795 5798 5800 5802 5802 5805 5805 5805 5806 5806 5806 5806 5805 5805 5804 5804 5804 5803 5802 5800 5798 5796
5684 5680 5704 5691 5692 5698 5698 5722 5726 5733 5746 5752 5759 5761 5764 5766 5769 5772 5772 5774 5775 5777 5779 5780 5781 5783 5783 5785 5786 5788 5790 5793 5796 5796 5796 5798 5797 5798 5796 5796 5797 5797 5796 5796 5794 5794 5791 5790 5787
5670 5682 5679 5677 5680 5685 5693 5710 5713 5729 5737 5742 5749 5754 5755 5755 5758 5761 5763 5765 5766 5767 5769 5771 5773 5775 5775 5776 5776 5777 5777 5780 5784 5785 5788 5789 5788 5788 5788 5788 5788 5788 5788 5787 5785 5784 5782 5780 5776
5663 5664 5670 5672 5673 5678 5685 5693 5716 5716 5723 5731 5736 5741 5742 5745 5748 5752 5755 5756 5758 5760 5762 5763 5764 5766 5767 5768 5767 5767 5768 5770 5774 5776 5778 5779 5779 5780 5780 5780 5779 5779 5778 5777 5776 5775 5772 5770 5766
5645 5652 5658 5660 5665 5668 5673 5681 5703 5706 5713 5720 5725 5730 5732 5734 5737 5740 5743 5747 5749 5751 5753 5755 5755 5757 5758 5759 5760 5760 5761 5763 5765 5768 5770 5770 5771 5770 5770 5770 5770 5770 5768 5767 5766 5764 5762 5759 5756
Wind_Speed
28 27 28 27 23 22 20 17 13 11 9 11 14 15 15 15 14 10 5 9 8 11 11 11 10 18 16 15 15 16 13 12 11 11 9 8 8 8 9 9 11 11 10 10 9 8 6 5 5
31 32 31 30 26 24 23 20 16 13 10 10 12 14 15 14 12 8 3 6 8 9 9 9 11 12 16 16 16 16 12 11 11 9 7 6 6 8 9 9 10 10 8 9 7 6 5 4 4
32 34 34 33 32 26 25 22 18 15 11 9 11 11 13 13 11 7 4 4 6 7 9 8 10 11 16 15 16 14 12 12 12 9 6 5 5 6 9 10 10 9 8 7 5 4 3 3 3
36 31 37 37 33 30 28 25 21 18 14 11 10 10 11 12 11 7 5 2 5 7 10 9 11 11 14 17 14 12 12 13 11 9 6 4 5 5 7 9 9 7 6 4 2 2 2 2 2
37 38 37 28 39 41 33 27 24 20 16 13 11 10 10 11 12 7 4 1 4 8 10 11 9 11 16 17 15 15 12 13 11 9 5 4 4 6 7 8 6 6 5 4 4 3 3 4 5
34 34 38 39 31 41 39 32 27 23 19 13 11 10 9 10 11 8 4 3 5 10 12 12 11 12 15 15 15 14 12 11 9 9 7 6 6 8 8 8 7 7 5 5 3 3 5 6 6
38 33 34 35 36 36 41 38 30 27 21 16 12 12 10 10 10 9 5 4 6 11 14 14 15 14 14 14 13 13 14 12 10 9 6 5 6 9 9 6 5 5 4 4 5 5 7 8 10
44 40 34 32 33 34 33 46 42 34 28 21 16 14 12 12 10 11 6 6 9 11 15 17 15 14 12 14 13 13 14 13 12 9 6 6 6 8 8 6 4 4 6 8 8 8 8 9 11
43 45 37 29 31 29 30 30 41 40 38 31 19 17 15 13 13 12 8 8 9 13 18 19 17 13 13 13 12 13 11 10 8 6 5 6 6 9 9 9 8 9 9 9 9 8 9 10 11
50 45 39 39 29 31 30 30 33 37 33 26 22 17 16 16 15 15 11 9 11 15 18 22 20 17 14 14 15 16 16 14 11 9 7 7 9 11 12 12 12 11 11 11 11 10 11 11 13
52 47 40 42 36 32 32 31 30 33 33 29 24 18 18 19 17 17 14 11 12 13 19 22 23 20 17 16 16 16 15 14 13 12 11 10 10 12 13 13 13 14 14 14 14 15 14 14 14
54 49 46 43 43 37 35 34 33 33 32 33 27 23 21 21 21 20 17 14 14 17 18 22 23 22 19 19 18 17 17 17 16 14 13 10 9 10 12 14 15 16 17 18 18 17 17 16 16
56 50 49 49 45 43 35 34 34 35 37 34 29 26 26 24 23 21 21 18 17 18 20 22 24 23 23 22 20 19 19 19 18 18 16 14 13 13 13 15 16 17 18 18 18 19 19 18 17
57 55 53 55 51 45 42 33 36 34 40 35 31 29 30 29 27 25 24 21 21 19 21 21 25 26 25 24 22 20 19 21 21 21 19 18 17 17 17 17 18 18 19 19 19 20 20 21 20
52 51 53 55 54 50 46 39 34 34 39 41 35 34 32 33 29 31 26 25 24 22 20 22 23 28 29 28 26 24 22 22 22 22 22 21 21 21 21 19 19 20 20 20 19 20 21 22 23
47 46 49 50 51 55 51 40 33 35 37 36 37 37 35 35 34 32 29 29 27 25 24 24 25 25 30 31 31 30 27 26 26 27 26 26 23 24 23 22 22 21 21 20 19 20 22 23 23
42 49 46 48 48 51 53 48 35 36 36 34 40 39 38 38 37 33 33 32 30 28 26 25 25 27 29 30 30 32 31 30 29 28 27 27 25 26 25 24 22 22 22 20 19 21 23 23 24
34 42 44 39 44 50 53 53 36 40 36 33 40 42 43 41 35 35 36 35 33 30 28 26 26 27 29 30 30 29 29 30 30 31 31 29 27 27 27 25 22 24 22 20 21 22 23 23 23
46 42 33 35 44 46 48 51 37 42 37 36 34 36 36 37 34 40 38 35 34 30 29 30 29 29 29 30 31 31 32 34 33 33 32 28 27 27 28 26 24 23 21 22 23 23 23 23 24
46 44 42 45 38 49 52 52 42 41 44 36 36 33 33 35 36 39 39 37 33 32 33 32 31 32 30 30 31 31 32 32 32 29 28 26 28 30 29 27 23 21 23 22 23 24 24 25 28
58 56 47 49 47 47 48 51 41 40 44 43 38 32 33 31 36 38 39 36 36 35 33 32 35 36 32 31 32 28 29 27 28 29 29 30 31 28 27 24 24 23 23 24 25 27 29 30 31
46 63 63 54 49 50 53 55 45 44 45 41 36 31 30 31 31 40 42 40 39 35 37 37 35 35 35 33 29 28 29 28 29 30 30 28 26 26 26 26 26 24 23 25 28 31 31 32 34
47 45 52 49 47 51 57 59 47 46 48 38 34 32 30 30 32 35 41 41 39 39 39 38 37 36 34 31 30 29 30 30 30 30 30 28 28 27 26 26 27 27 29 28 31 33 33 35 36
45 46 35 44 42 48 48 55 60 45 48 36 36 38 33 32 32 35 39 40 40 39 38 38 39 38 37 36 34 32 32 33 32 33 32 32 31 29 28 30 33 31 28 31 34 34 37 39 38
41 61 54 38 54 48 43 53 62 46 46 39 37 37 39 35 31 34 35 34 38 39 39 38 38 36 38 40 41 40 38 37 36 35 36 35 34 32 33 35 31 30 33 34 36 38 39 39 39
66 64 65 61 53 62 61 51 52 42 42 41 42 37 41 39 38 34 32 36 37 38 40 38 37 38 40 41 41 44 45 44 39 40 39 40 44 40 38 34 30 30 33 36 38 39 39 41 42
78 74 64 63 69 71 69 66 60 49 38 41 38 38 41 41 39 37 32 35 35 36 37 37 36 36 36 36 41 42 46 45 42 38 38 38 33 34 35 29 28 31 34 37 38 39 41 44 46
73 72 71 64 65 70 72 65 67 50 44 39 38 43 39 39 38 40 38 38 34 34 36 35 35 34 34 34 34 37 44 44 43 43 37 34 32 30 30 30 32 34 35 38 40 42 44 46 45
67 72 78 78 68 65 70 75 62 62 53 46 46 45 46 46 43 38 37 40 40 38 38 37 36 35 33 31 31 31 31 38 40 38 34 33 34 32 33 34 35 36 38 41 43 44 47 48 49
61 60 63 70 61 64 55 58 63 65 61 51 47 45 47 47 45 46 45 41 42 41 40 39 38 38 35 33 32 30 32 36 37 36 35 35 35 36 36 37 37 39 42 45 46 48 48 48 49
Wind_Direction
230 233 237 241 242 247 253 256 265 279 302 320 332 347 347 358 8 11 67 92 110 133 125 126 126 146 144 136 138 132 133 127 132 136 130 122 117 105 104 106 119 125 124 124 124 115 106 117 138
230 234 236 239 240 243 248 254 257 265 284 307 320 335 341 353 5 8 37 105 108 140 143 142 141 146 152 139 139 140 137 133 137 130 125 113 123 119 114 122 127 128 133 123 121 120 139 153 166
232 233 238 238 238 240 246 250 253 258 269 287 305 320 332 343 357 360 5 128 127 144 165 153 155 157 165 153 146 143 149 140 142 136 135 138 139 130 133 134 132 126 129 133 136 152 147 181 190
235 233 240 239 238 241 241 246 249 254 260 272 288 305 319 333 342 346 354 170 138 164 173 166 163 157 164 166 156 151 153 145 145 155 154 140 143 145 138 129 128 125 136 131 138 144 197 232 239
239 232 235 246 243 237 243 241 245 250 254 262 274 287 302 322 327 332 332 259 144 160 188 169 171 162 165 166 161 159 159 157 162 167 151 151 155 156 151 141 137 139 148 164 178 203 237 244 255
246 242 238 240 246 236 233 239 238 245 252 257 262 268 283 301 313 316 302 264 171 158 184 172 163 160 168 174 174 163 165 170 173 176 177 180 177 176 168 164 162 161 183 185 202 239 260 267 284
246 246 246 243 246 248 240 235 235 238 246 250 252 256 264 277 294 299 299 256 200 176 178 177 167 168 171 175 177 174 174 178 185 194 199 202 202 188 190 180 171 185 200 214 232 249 264 285 295
249 247 244 247 246 248 257 236 228 236 248 255 249 251 254 262 274 285 285 248 211 191 183 184 176 171 174 182 186 185 185 190 196 200 215 223 209 201 203 202 202 217 226 229 236 256 283 296 308
255 249 245 248 246 251 252 253 236 240 245 242 238 242 246 251 261 271 272 246 228 203 190 189 193 187 187 186 192 196 197 214 216 216 231 220 215 211 213 217 219 226 234 241 254 272 289 301 306
254 255 255 251 245 244 242 244 246 244 238 232 234 237 238 245 250 260 261 252 231 214 204 201 201 201 203 203 199 197 196 200 204 213 223 216 214 219 222 229 231 239 249 261 267 279 285 291 294
252 256 260 257 246 249 239 238 244 229 229 230 233 233 233 238 241 250 253 248 235 227 215 211 214 214 212 207 207 206 208 213 215 220 227 233 231 230 233 243 253 257 263 270 274 276 282 285 288
247 251 258 261 252 248 243 235 230 229 230 231 234 233 231 233 237 244 250 245 242 227 223 217 222 220 223 212 208 213 218 218 222 232 237 238 234 238 241 245 253 260 263 264 269 276 279 283 290
243 243 248 255 258 254 246 242 237 232 234 235 232 236 232 227 232 238 247 246 244 239 227 223 221 226 220 221 221 225 230 228 228 232 240 243 245 250 252 249 249 255 259 266 271 275 281 286 289
241 240 241 249 255 258 253 242 236 230 236 233 234 236 236 229 227 233 237 247 246 244 235 229 224 222 224 226 231 234 233 235 238 237 244 248 251 252 251 257 262 261 264 266 273 279 282 284 288
244 241 240 244 250 254 257 240 240 244 237 232 237 237 238 236 227 231 230 239 244 244 243 234 233 228 227 230 234 236 238 238 242 246 250 253 256 260 257 260 263 267 269 270 273 275 281 284 288
247 241 238 240 246 251 254 248 251 247 241 237 233 230 231 237 231 232 230 234 238 239 241 237 231 231 235 235 234 237 240 244 247 250 253 255 256 259 261 265 270 275 274 271 274 278 279 282 287
231 240 236 236 240 245 249 249 244 245 233 230 227 227 225 230 233 233 234 233 234 237 239 241 240 233 235 240 242 242 243 245 252 253 253 253 254 257 260 265 272 274 277 279 277 277 281 286 288
221 231 231 239 241 239 241 246 240 246 236 223 226 226 227 231 231 235 237 236 236 235 237 240 242 244 243 242 244 247 246 245 245 249 251 254 254 258 262 266 270 273 280 280 278 281 285 289 291
240 232 235 242 241 235 236 238 233 248 243 230 224 234 234 235 233 235 237 240 238 241 240 239 240 240 240 243 243 245 246 246 248 252 256 260 259 258 261 262 266 274 276 275 279 284 287 295 298
236 247 240 248 254 247 235 237 227 235 246 245 231 237 237 236 232 238 237 237 236 237 240 243 244 246 244 246 244 244 249 254 257 262 265 264 259 255 258 263 269 270 273 278 281 290 296 295 297
251 251 245 255 258 250 237 238 226 227 240 245 236 233 238 235 236 239 240 236 235 236 241 245 246 247 247 248 252 254 254 257 259 258 253 250 252 257 262 266 266 269 273 280 283 292 291 295 299
233 248 253 255 246 241 244 244 232 228 236 241 237 237 242 237 239 236 237 234 233 234 239 241 247 252 252 253 256 256 256 255 256 259 262 264 263 259 260 264 268 271 273 278 282 287 291 294 295
229 239 245 239 244 238 237 244 231 232 239 239 239 243 247 240 232 233 239 239 236 234 235 239 241 245 250 253 253 255 259 258 259 260 260 261 259 258 262 266 269 272 278 277 282 284 288 290 289
224 223 217 232 237 237 232 243 244 232 240 235 238 241 249 243 236 235 241 242 243 243 239 241 245 247 249 251 251 253 257 259 258 259 259 259 260 260 264 266 271 272 273 279 280 283 286 288 296
214 225 231 241 240 241 237 237 250 237 236 234 235 238 244 239 238 242 249 253 249 248 239 238 242 248 252 253 256 253 253 252 251 254 257 259 260 262 261 265 264 266 273 276 278 283 287 293 297
233 239 247 247 246 248 250 246 257 250 235 235 232 238 237 244 242 242 246 247 245 244 238 240 246 246 248 252 255 252 254 255 252 251 257 257 262 261 267 260 261 265 270 274 280 283 290 293 299
239 240 244 246 245 248 247 251 250 250 241 233 226 232 237 241 244 243 242 245 239 238 236 236 239 242 248 253 255 256 253 251 250 252 255 262 263 261 258 259 262 268 272 276 282 289 291 294 300
234 235 235 240 245 249 249 245 248 250 248 243 235 230 234 238 244 244 241 241 236 231 228 231 237 245 251 255 257 258 254 243 240 248 256 256 254 252 260 265 268 271 277 283 286 289 293 296 296
233 233 237 244 251 255 256 246 244 241 257 250 244 234 230 233 238 242 241 238 237 236 237 239 240 243 248 250 251 252 249 235 238 248 247 246 250 258 261 267 272 277 280 283 287 291 293 293 294
230 234 236 236 235 246 243 246 247 252 250 253 252 241 232 233 236 239 241 242 242 242 240 239 240 242 243 244 249 250 241 238 240 241 241 245 252 258 265 270 275 278 281 283 288 290 291 292 293